Regional Weather Roundup
Issued by NWS

Home | Current Version | Previous Version | Graphics & Text | Print | Product List | Glossary On
Versions: 1 2 3 4 5 6 7 8 9 10 11 12 13 14 15 16 17 18 19 20 21 22 23 24 25 26 27
000
ASUS45 KCYS 252310
RWRWY

WYOMING REGIONAL WEATHER ROUNDUP
NATIONAL WEATHER SERVICE CHEYENNE WY
500 PM MDT THU AUG 25 2016

NOTE:  "FAIR" INDICATES FEW OR NO CLOUDS BELOW 12,000 FEET
WITH NO SIGNIFICANT WEATHER AND/OR OBSTRUCTIONS TO VISIBILITY.

WYZ001-260000-
YELLOWSTONE NATIONAL PARK

CITY           SKY/WX    TMP DP  RH WIND       PRES   REMARKS
LK YELLOWSTONE   N/A     58  27  30 CALM      30.25F
W YELLOWSTONE  NOT AVBL

$$
WYZ002>013-054>058-071-098>099-260000-
NORTHERN WYOMING

CITY           SKY/WX    TMP DP  RH WIND       PRES   REMARKS
JACKSON        FAIR      64  30  27 NW7       30.17F
CODY           FAIR      64  37  36 SE7       30.18F
GREYBULL       FAIR      70  35  27 VRB5      30.13F
WORLAND        PTSUNNY   70  42  36 NW6       30.14F
SHERIDAN       FAIR      68  39  34 SE9       30.18F
BUFFALO        FAIR      62  41  46 S6        30.23F
GILLETTE       CLOUDY    64  39  39 SE5       30.21F
HULETT         FAIR      64  36  34 E5        30.23F
NEWCASTLE      FAIR      64  34  32 NW6       30.23F

$$
WYZ014>020-022>026-101>103-260000-
CENTRAL WYOMING

CITY           SKY/WX    TMP DP  RH WIND       PRES   REMARKS
BIG PINEY      LGT RAIN  53  40  61 NE14      30.21F
PINEDALE       TSTM      55  30  38 S8        30.26R
DUBOIS         DRIZZLE   52  37  58 SW21G26   30.24F
LANDER         PTSUNNY   63  42  46 VRB3      30.18F
RIVERTON       FAIR      64  44  48 VRB7      30.19F
CASPER         FAIR      64  46  52 E10       30.22F
DOUGLAS        FAIR      63  43  48 S8        30.24F

$$
WYZ021-027>030-104>119-260000-
SOUTHERN WYOMING

CITY           SKY/WX    TMP DP  RH WIND       PRES   REMARKS
EVANSTON       CLOUDY    68  20  16 VRB6G18   30.18F
FORT BRIDGER   FAIR      69  24  18 NW6       30.22F
ROCK SPRINGS   FAIR      68  24  19 SW10      30.20F
DIXON          FAIR      71  32  23 W5        30.21F
RAWLINS        FAIR      67  33  28 NE9G17    30.21F
SARATOGA       FAIR      66  34  30 NE13G22   30.21F
LARAMIE        FAIR      61  38  42 S22G32    30.25S
CHEYENNE       FAIR      67  37  33 S13G21    30.23F
TORRINGTON     FAIR      69  42  37 SE7       30.20F
PINE BLUFFS    FAIR      70  37  30 SE12G18   30.22R

$$




USA.gov is the U.S. government's official web portal to all federal, state and local government web resources and services.